This is the latest recevied weather packets stored in our database for station/object CQ0XVC-11. If no packets are shown the sender has not sent any weather packets the latest 10 day(s).
| Time | Temp. | Humidity | Pressure | Rain* | Wind** | Luminosity | Snow |
|---|---|---|---|---|---|---|---|
| 1777708173 | 16.67° C | 55% | 1004.2 hPa | 0 mm | - | - | - |
| 1777707912 | 16.67° C | 56% | 1004.2 hPa | 0 mm | - | - | - |
| 1777707871 | 16.67° C | 56% | 1004.2 hPa | 0 mm | - | - | - |
| 1777707339 | 16.11° C | 61% | 1003.9 hPa | 0 mm | - | - | - |
| 1777707267 | 16.11° C | 61% | 1003.9 hPa | 0 mm | - | - | - |
| 1777707001 | 15.56° C | 63% | 1004.2 hPa | 0 mm | - | - | - |
| 1777706964 | 15.56° C | 63% | 1004.2 hPa | 0 mm | - | - | - |
| 1777706697 | 15.56° C | 60% | 1004.3 hPa | 0 mm | - | - | - |
| 1777706662 | 15.56° C | 60% | 1004.3 hPa | 0 mm | - | - | - |
| 1777706360 | 15° C | 65% | 1004.2 hPa | 0 mm | - | - | - |
| 1777706106 | 14.44° C | 66% | 1004.4 hPa | 0 mm | - | - | - |
| 1777706058 | 14.44° C | 66% | 1004.4 hPa | 0 mm | - | - | - |
| 1777705755 | 14.44° C | 68% | 1004.2 hPa | 0 mm | - | - | - |
| 1777705500 | 13.89° C | 69% | 1004.2 hPa | 0 mm | - | - | - |
| 1777705454 | 13.89° C | 69% | 1004.2 hPa | 0 mm | - | - | - |
| 1777705197 | 13.89° C | 69% | 1004.4 hPa | 0 mm | - | - | - |
| 1777705151 | 13.89° C | 69% | 1004.4 hPa | 0 mm | - | - | - |
| 1777704908 | 13.89° C | 70% | 1004.4 hPa | 0 mm | - | - | - |
| 1777704849 | 13.89° C | 70% | 1004.4 hPa | 0 mm | - | - | - |
| 1777704593 | 13.33° C | 74% | 1004.3 hPa | 0 mm | - | - | - |
| 1777704547 | 13.33° C | 74% | 1004.3 hPa | 0 mm | - | - | - |
| 1777704306 | 12.78° C | 75% | 1004.5 hPa | 0 mm | - | - | - |
| 1777704245 | 12.78° C | 75% | 1004.5 hPa | 0 mm | - | - | - |
| 1777703942 | 11.67° C | 75% | 1004.5 hPa | 0 mm | - | - | - |
| 1777703641 | 11.11° C | 75% | 1004.5 hPa | 0 mm | - | - | - |
* Rain since midnight (hover to see other rain measurements)
** Current wind speed in m/s (hover to see current wind gust speed)